User: anonymous   Login
Location: Unspecified
(0.0000°N, 0.0000°E)
Time: 22:18:15
(UTC+00:00)
Language:

STARLINK-35619 - Orbit

View from above orbital plane
View from above orbital plane
View from above satellite
View from above satellite

Ground track
Ground track

The orbit is defined by the following mean orbital elements,

1 66256U          26145.64530390 +.00000000 +00000-0 +51084-3 0 00007
2 66256  53.1605 286.0897 0001437  91.5730 268.5436 15.30199938    09
Epoch (UTC): 25 May 2026 15:29:14
Eccentricity: 0.0001437
inclination: 53.1605°
perigee height: 474 km
apogee height: 476 km
right ascension of ascending node: 286.0897°
argument of perigee: 91.5730°
revolutions per day: 15.30199938
mean anomaly at epoch: 268.5436°

The dashed part of the orbit path shows where the satellite is in the earth's shadow,  

DLR